KF5JED-13 Weather Reports


time (UTC)temp
C
wind
direction
speed
KPH
gust
KPH
rain 1hr
cm
rain 24hr
cm
rain mn
cm
humidity
%
barometer
mb
20260901105837 22 178 14.5 17.7 0.00 0.00 0.00 57 1019.4
20260901105332 22 180 11.3 16.1 0.00 0.00 0.00 57 1019.0
20260901104828 22 173 11.3 17.7 0.00 0.00 0.00 57 1019.0
20260901104323 22 160 16.1 19.3 0.00 0.00 0.00 57 1019.0
20260901103819 22 175 11.3 17.7 0.00 0.00 0.00 57 1018.9
20260901103319 22 172 14.5 17.7 0.00 0.00 0.00 57 1019.0
20260901102814 22 178 9.7 20.9 0.00 0.00 0.00 57 1018.9
20260901102308 22 168 11.3 12.9 0.00 0.00 0.00 57 1018.8
20260901101803 22 166 8.0 17.7 0.00 0.00 0.00 57 1019.1
20260901101258 22 166 14.5 16.1 0.00 0.00 0.00 58 1018.9
20260901100757 22 167 9.7 16.1 0.00 0.00 0.00 57 1018.9
20260901100252 22 160 8.0 14.5 0.00 0.00 0.00 56 1018.9
20260901095750 22 164 9.7 16.1 0.00 0.00 0.00 56 1018.8
20260901095248 22 174 11.3 16.1 0.00 0.00 0.00 56 1018.9
20260901094743 22 170 11.3 16.1 0.00 0.00 0.00 55 1018.9
20260901094238 22 180 6.4 12.9 0.00 0.00 0.00 55 1019.0
20260901093733 22 186 11.3 12.9 0.00 0.00 0.00 55 1019.0
20260901093231 22 173 14.5 16.1 0.00 0.00 0.00 54 1018.9
20260901092728 23 167 14.5 17.7 0.00 0.00 0.00 54 1019.0
20260901092224 23 162 14.5 20.9 0.00 0.00 0.00 53 1019.1
20260901091719 23 171 12.9 20.9 0.00 0.00 0.00 53 1019.0
20260901091214 22 156 9.7 20.9 0.00 0.00 0.00 53 1019.1
20260901090709 23 161 17.7 24.1 0.00 0.00 0.00 52 1018.8
20260901090204 23 159 16.1 20.9 0.00 0.00 0.00 53 1018.8
20260901085700 23 158 14.5 24.1 0.00 0.00 0.00 52 1018.7
20260901085155 23 148 14.5 27.4 0.00 0.00 0.00 51 1019.0
20260901084652 23 154 17.7 25.7 0.00 0.00 0.00 51 1018.8
20260901084148 23 157 20.9 24.1 0.00 0.00 0.00 51 1018.8
20260901083647 23 156 16.1 25.7 0.00 0.00 0.00 51 1018.7
20260901083146 23 155 19.3 25.7 0.00 0.00 0.00 50 1018.7
20260901082640 23 158 17.7 20.9 0.00 0.00 0.00 50 1018.6
20260901082136 23 163 14.5 24.1 0.00 0.00 0.00 50 1018.8
20260901081631 23 153 14.5 24.1 0.00 0.00 0.00 49 1018.8
20260901081125 24 155 17.7 27.4 0.00 0.00 0.00 49 1018.7
20260901080620 24 153 17.7 24.1 0.00 0.00 0.00 49 1018.6
20260901080118 25 148 19.3 27.4 0.00 0.00 0.00 48 1018.7
20260901075614 25 147 19.3 27.4 0.00 0.00 0.00 48 1018.9
20260901075114 25 154 22.5 27.4 0.00 0.00 0.00 48 1018.9
20260901074608 25 155 24.1 25.7 0.00 0.00 0.00 48 1019.1
20260901074103 25 163 24.1 27.4 0.00 0.00 0.00 48 1018.8
20260901073600 25 147 19.3 24.1 0.00 0.00 0.00 48 1018.9
20260901073059 25 157 20.9 25.7 0.00 0.00 0.00 48 1018.8
20260901072555 25 147 19.3 24.1 0.00 0.00 0.00 48 1018.9
20260901072049 25 136 16.1 25.7 0.00 0.00 0.00 48 1018.7
20260901071544 25 146 24.1 24.1 0.00 0.00 0.00 47 1018.9
20260901071042 25 146 16.1 24.1 0.00 0.00 0.00 48 1019.0
20260901070538 25 148 14.5 27.4 0.00 0.00 0.00 48 1018.9
20260901070033 25 159 14.5 22.5 0.00 0.00 0.00 47 1019.2
20260901065527 25 148 14.5 24.1 0.00 0.00 0.00 47 1019.0
20260901065021 25 149 17.7 22.5 0.00 0.00 0.00 47 1018.9
20260901064518 25 144 14.5 22.5 0.00 0.00 0.00 47 1019.4
20260901064015 25 152 14.5 22.5 0.00 0.00 0.00 47 1019.2
20260901063512 25 158 14.5 19.3 0.00 0.00 0.00 47 1019.1
20260901063008 25 144 14.5 22.5 0.00 0.00 0.00 47 1019.2
20260901062503 25 153 11.3 17.7 0.00 0.00 0.00 48 1019.0
20260901061959 24 145 9.7 20.9 0.00 0.00 0.00 48 1019.1
20260901061454 25 159 14.5 19.3 0.00 0.00 0.00 48 1019.2
20260901060949 25 154 12.9 20.9 0.00 0.00 0.00 47 1018.9
20260901060444 25 153 17.7 19.3 0.00 0.00 0.00 48 1018.9
20260901055944 25 143 12.9 17.7 0.00 0.00 0.00 48 1019.0
20260901055440 25 156 11.3 17.7 0.00 0.00 0.00 48 1019.1
20260901054937 25 147 14.5 17.7 0.00 0.00 0.00 48 1018.9
20260901054434 24 148 12.9 16.1 0.00 0.00 0.00 49 1019.1
20260901053929 25 150 16.1 17.7 0.00 0.00 0.00 48 1019.0
20260901053425 25 145 12.9 20.9 0.00 0.00 0.00 48 1019.1
20260901052920 25 148 11.3 17.7 0.00 0.00 0.00 48 1019.0
20260901052415 25 155 14.5 17.7 0.00 0.00 0.00 47 1019.1
20260901051914 25 147 14.5 17.7 0.00 0.00 0.00 48 1019.2
20260901051410 25 136 12.9 17.7 0.00 0.00 0.00 48 1019.0
20260901050904 25 151 12.9 16.1 0.00 0.00 0.00 48 1019.1
20260901050400 25 154 12.9 19.3 0.00 0.00 0.00 47 1019.0
20260901045900 25 152 11.3 17.7 0.00 0.00 0.00 47 1018.8
20260901045354 25 157 12.9 20.9 0.00 0.00 0.00 47 1019.0
20260901044850 25 157 12.9 19.3 0.00 0.00 0.00 47 1018.9
20260901044346 25 158 11.3 22.5 0.00 0.00 0.00 47 1019.1
20260901043841 25 144 17.7 20.9 0.00 0.00 0.00 47 1019.0
20260901043337 25 148 14.5 20.9 0.00 0.00 0.00 47 1018.6
20260901042837 25 149 14.5 20.9 0.00 0.00 0.00 47 1018.8
20260901042331 25 153 8.0 17.7 0.00 0.00 0.00 47 1018.8
20260901041827 25 138 12.9 19.3 0.00 0.00 0.00 47 1018.9
20260901041322 26 155 14.5 16.1 0.00 0.00 0.00 47 1018.9
20260901040821 26 146 12.9 20.9 0.00 0.00 0.00 46 1018.8
20260901040320 26 150 9.7 17.7 0.00 0.00 0.00 46 1018.7
20260901035815 26 157 12.9 19.3 0.00 0.00 0.00 45 1018.8
20260901035314 26 144 11.3 17.7 0.00 0.00 0.00 45 1018.5
20260901034812 26 155 9.7 19.3 0.00 0.00 0.00 44 1018.7
20260901034308 26 157 9.7 17.7 0.00 0.00 0.00 44 1018.6
20260901033802 26 147 14.5 14.5 0.00 0.00 0.00 44 1018.6
20260901033301 26 136 9.7 14.5 0.00 0.00 0.00 44 1018.7
20260901032759 26 151 9.7 17.7 0.00 0.00 0.00 44 1018.2
20260901032254 27 141 8.0 16.1 0.00 0.00 0.00 43 1018.2
20260901031749 26 142 8.0 16.1 0.00 0.00 0.00 43 1018.4
20260901031244 26 142 11.3 16.1 0.00 0.00 0.00 43 1018.1
20260901030739 26 144 6.4 14.5 0.00 0.00 0.00 43 1018.2
20260901030234 27 142 9.7 16.1 0.00 0.00 0.00 42 1018.0
20260901025728 27 139 11.3 16.1 0.00 0.00 0.00 42 1017.9
20260901025223 26 143 8.0 14.5 0.00 0.00 0.00 43 1017.7
20260901024717 26 132 14.5 17.7 0.00 0.00 0.00 43 1017.7
20260901024217 27 146 9.7 11.3 0.00 0.00 0.00 42 1017.6
20260901023715 27 133 6.4 14.5 0.00 0.00 0.00 42 1017.7
20260901023210 27 139 9.7 12.9 0.00 0.00 0.00 41 1017.5
20260901022706 27 150 9.7 14.5 0.00 0.00 0.00 41 1017.3
20260901022201 28 159 9.7 17.7 0.00 0.00 0.00 40 1017.3
20260901021656 28 150 12.9 14.5 0.00 0.00 0.00 40 1017.1
20260901021151 28 161 9.7 14.5 0.00 0.00 0.00 40 1017.1
20260901020647 28 151 9.7 11.3 0.00 0.00 0.00 40 1017.1
20260901020142 28 148 12.9 16.1 0.00 0.00 0.00 39 1017.0
20260901015637 28 160 11.3 17.7 0.00 0.00 0.00 39 1016.9
20260901015137 28 158 9.7 12.9 0.00 0.00 0.00 38 1016.8
20260901014632 28 161 11.3 12.9 0.00 0.00 0.00 39 1016.8
20260901014128 28 167 6.4 11.3 0.00 0.00 0.00 39 1016.9
20260901013624 28 161 11.3 12.9 0.00 0.00 0.00 38 1016.6
20260901013120 29 160 8.0 11.3 0.00 0.00 0.00 38 1016.9
20260901012619 29 156 9.7 12.9 0.00 0.00 0.00 37 1016.8
20260901012114 29 166 9.7 11.3 0.00 0.00 0.00 37 1016.6
20260901011610 30 164 11.3 14.5 0.00 0.00 0.00 37 1016.6
20260901011108 30 168 14.5 16.1 0.00 0.00 0.00 36 1016.9
20260901010603 30 158 9.7 11.3 0.00 0.00 0.00 34 1016.7
20260901005557 31 147 16.1 17.7 0.00 0.00 0.00 33 1016.3
20260901005052 31 157 17.7 25.7 0.00 0.00 0.00 33 1016.3
20260901004552 31 161 14.5 25.7 0.00 0.00 0.00 33 1016.5
20260901004047 32 157 14.5 19.3 0.00 0.00 0.00 33 1016.6
20260901003542 32 171 12.9 20.9 0.00 0.00 0.00 32 1016.3
20260901003040 32 161 14.5 22.5 0.00 0.00 0.00 31 1016.5
20260901002540 32 159 14.5 19.3 0.00 0.00 0.00 31 1016.5
20260901002035 32 158 20.9 25.7 0.00 0.00 0.00 30 1016.2
20260901001531 32 148 17.7 24.1 0.00 0.00 0.00 31 1016.6
20260901001026 32 159 14.5 25.7 0.00 0.00 0.00 30 1016.5
20260901000526 33 153 24.1 27.4 0.00 0.00 0.00 30 1016.5
20260901000022 33 150 17.7 32.2 0.00 0.00 0.00 31 1016.6
20260831235515 33 157 22.5 24.1 0.00 0.00 0.00 31 1016.5
20260831235011 33 160 17.7 22.5 0.00 0.00 0.00 30 1016.5
20260831234505 33 171 17.7 29.0 0.00 0.00 0.00 31 1016.6
20260831234001 33 158 20.9 25.7 0.00 0.00 0.00 31 1016.5
20260831233456 33 170 17.7 27.4 0.00 0.00 0.00 31 1016.5
20260831232951 33 169 17.7 27.4 0.00 0.00 0.00 31 1016.3
20260831232447 33 150 17.7 25.7 0.00 0.00 0.00 30 1016.6
20260831231943 33 163 24.1 29.0 0.00 0.00 0.00 30 1016.5
20260831231439 34 164 16.1 27.4 0.00 0.00 0.00 30 1016.5
20260831230934 33 168 9.7 20.9 0.00 0.00 0.00 30 1016.5
20260831230434 33 159 14.5 20.9 0.00 0.00 0.00 30 1016.9
20260831225929 34 162 17.7 25.7 0.00 0.00 0.00 29 1016.7
20260831225425 33 156 17.7 30.6 0.00 0.00 0.00 29 1016.8
20260831224920 35 162 20.9 24.1 0.00 0.00 0.00 28 1016.9
20260831224420 34 149 9.7 20.9 0.00 0.00 0.00 28 1016.9
20260831223914 35 165 17.7 20.9 0.00 0.00 0.00 27 1016.8
20260831223410 35 169 14.5 25.7 0.00 0.00 0.00 28 1016.8
20260831222907 34 159 8.0 17.7 0.00 0.00 0.00 30 1016.7
20260831222402 34 157 6.4 16.1 0.00 0.00 0.00 29 1016.9
20260831221857 35 156 8.0 14.5 0.00 0.00 0.00 28 1016.8
20260831221353 35 163 24.1 25.7 0.00 0.00 0.00 28 1016.8
20260831220848 34 162 14.5 22.5 0.00 0.00 0.00 28 1017.1
20260831220343 33 154 9.7 20.9 0.00 0.00 0.00 30 1016.9
20260831215838 35 167 16.1 22.5 0.00 0.00 0.00 27 1016.9
20260831215334 34 152 17.7 20.9 0.00 0.00 0.00 28 1017.0
20260831214830 33 151 12.9 32.2 0.00 0.00 0.00 30 1017.0
20260831214328 33 125 19.3 20.9 0.00 0.00 0.00 30 1016.8
20260831213822 34 155 11.3 22.5 0.00 0.00 0.00 29 1017.0
20260831213319 34 221 11.3 25.7 0.00 0.00 0.00 28 1017.0
20260831212814 35 199 22.5 32.2 0.00 0.00 0.00 29 1016.9
20260831212310 33 161 9.7 24.1 0.00 0.00 0.00 30 1017.2
20260831211803 35 160 14.5 24.1 0.00 0.00 0.00 28 1017.5
20260831211258 33 168 19.3 20.9 0.00 0.00 0.00 29 1017.6
20260831210752 34 170 12.9 25.7 0.00 0.00 0.00 30 1017.5
20260831210249 34 132 22.5 38.6 0.00 0.00 0.00 30 1017.6
20260831205748 33 164 9.7 16.1 0.00 0.00 0.00 30 1017.7
20260831205244 34 198 16.1 24.1 0.00 0.00 0.00 29 1017.7
20260831204744 34 218 20.9 33.8 0.00 0.00 0.00 29 1017.7
20260831204244 34 155 14.5 19.3 0.00 0.00 0.00 29 1017.8
20260831203743 35 150 16.1 20.9 0.00 0.00 0.00 28 1018.0
20260831203238 34 163 20.9 29.0 0.00 0.00 0.00 30 1018.0
20260831202736 33 157 8.0 12.9 0.00 0.00 0.00 29 1018.0
20260831202231 33 146 17.7 22.5 0.00 0.00 0.00 30 1018.2
20260831201731 33 152 17.7 29.0 0.00 0.00 0.00 30 1018.4
20260831201225 34 159 6.4 16.1 0.00 0.00 0.00 30 1018.4
20260831200720 34 164 14.5 22.5 0.00 0.00 0.00 31 1018.5
20260831200214 33 143 14.5 27.4 0.00 0.00 0.00 31 1018.5
20260831195710 34 175 17.7 25.7 0.00 0.00 0.00 30 1018.5
20260831195206 33 156 16.1 24.1 0.00 0.00 0.00 29 1018.6
20260831194700 35 130 11.3 22.5 0.00 0.00 0.00 29 1018.6
20260831194155 36 165 20.9 22.5 0.00 0.00 0.00 28 1018.6
20260831193650 34 162 11.3 11.3 0.00 0.00 0.00 31 1018.6
20260831193145 35 200 8.0 16.1 0.00 0.00 0.00 29 1018.8
20260831192641 33 192 6.4 12.9 0.00 0.00 0.00 30 1018.8
20260831192136 33 128 12.9 17.7 0.00 0.00 0.00 31 1018.9
20260831191632 34 163 20.9 29.0 0.00 0.00 0.00 30 1018.7
20260831191127 35 170 12.9 20.9 0.00 0.00 0.00 31 1018.9
20260831190622 34 182 6.4 12.9 0.00 0.00 0.00 31 1018.7
20260831190120 34 183 17.7 22.5 0.00 0.00 0.00 31 1019.0
20260831185611 33 199 9.7 9.7 0.00 0.00 0.00 31 1019.1
20260831185107 35 163 12.9 24.1 0.00 0.00 0.00 30 1019.2
20260831184606 34 173 16.1 22.5 0.00 0.00 0.00 31 1019.2
20260831184101 34 199 16.1 25.7 0.00 0.00 0.00 32 1019.2
20260831183600 34 144 6.4 19.3 0.00 0.00 0.00 32 1019.2
20260831183054 33 151 8.0 20.9 0.00 0.00 0.00 33 1019.5
20260831182549 33 147 12.9 24.1 0.00 0.00 0.00 34 1019.6
20260831182044 33 167 9.7 17.7 0.00 0.00 0.00 34 1019.5
20260831181539 33 159 17.7 25.7 0.00 0.00 0.00 33 1019.4
20260831181039 33 187 8.0 25.7 0.00 0.00 0.00 34 1019.5
20260831180534 33 211 11.3 22.5 0.00 0.00 0.00 35 1019.7
20260831180029 32 221 12.9 32.2 0.00 0.00 0.00 37 1019.5
20260831175524 32 161 11.3 17.7 0.00 0.00 0.00 36 1019.8
20260831175021 32 197 14.5 33.8 0.00 0.00 0.00 36 1019.7
20260831174520 33 186 14.5 24.1 0.00 0.00 0.00 35 1019.9
20260831174015 33 183 17.7 25.7 0.00 0.00 0.00 36 1019.7
20260831173513 32 203 19.3 27.4 0.00 0.00 0.00 37 1020.0
20260831173010 31 236 22.5 24.1 0.00 0.00 0.00 39 1019.7
20260831172505 32 214 22.5 27.4 0.00 0.00 0.00 38 1019.8
20260831171959 32 213 17.7 24.1 0.00 0.00 0.00 37 1019.9
20260831171454 32 190 19.3 30.6 0.00 0.00 0.00 39 1020.0
20260831170951 32 187 14.5 22.5 0.00 0.00 0.00 39 1020.0
20260831170447 31 207 14.5 27.4 0.00 0.00 0.00 40 1020.1
20260831165939 31 207 16.1 27.4 0.00 0.00 0.00 40 1020.0
20260831165434 31 204 16.1 22.5 0.00 0.00 0.00 41 1019.9
20260831164931 31 207 17.7 27.4 0.00 0.00 0.00 41 1019.9
20260831164426 30 208 14.5 24.1 0.00 0.00 0.00 43 1020.1
20260831163921 31 214 14.5 27.4 0.00 0.00 0.00 43 1020.0
20260831163417 30 225 19.3 25.7 0.00 0.00 0.00 44 1020.1
20260831162915 30 209 20.9 27.4 0.00 0.00 0.00 45 1020.0
20260831162411 29 217 19.3 29.0 0.00 0.00 0.00 46 1020.1
20260831161909 30 211 14.5 29.0 0.00 0.00 0.00 46 1020.1
20260831161406 30 210 14.5 27.4 0.00 0.00 0.00 45 1020.0
20260831160901 30 216 20.9 25.7 0.00 0.00 0.00 46 1020.1
20260831160356 30 209 27.4 29.0 0.00 0.00 0.00 46 1020.1
20260831155851 28 213 24.1 29.0 0.00 0.00 0.00 48 1019.9
20260831155351 30 220 27.4 32.2 0.00 0.00 0.00 47 1019.9
20260831154846 28 213 22.5 33.8 0.00 0.00 0.00 49 1019.9
20260831154343 28 217 17.7 27.4 0.00 0.00 0.00 49 1019.8
20260831153841 28 213 16.1 24.1 0.00 0.00 0.00 49 1020.1
20260831153337 28 227 19.3 24.1 0.00 0.00 0.00 50 1019.7
20260831152833 28 210 19.3 33.8 0.00 0.00 0.00 50 1020.0
20260831152329 28 218 12.9 29.0 0.00 0.00 0.00 51 1019.7
20260831151824 27 233 17.7 27.4 0.00 0.00 0.00 51 1020.1
20260831151323 27 218 11.3 25.7 0.00 0.00 0.00 51 1019.8
20260831150818 27 217 16.1 27.4 0.00 0.00 0.00 51 1019.8
20260831150314 27 220 14.5 27.4 0.00 0.00 0.00 51 1019.8
20260831145812 27 217 17.7 24.1 0.00 0.00 0.00 51 1020.0
20260831145309 27 214 11.3 20.9 0.00 0.00 0.00 52 1019.9
20260831144804 26 226 16.1 19.3 0.00 0.00 0.00 53 1020.0
20260831144301 26 255 3.2 12.9 0.00 0.00 0.00 54 1019.9
20260831143800 26 218 9.7 17.7 0.00 0.00 0.00 54 1020.0
20260831143255 26 234 6.4 8.0 0.00 0.00 0.00 55 1019.9
20260831142750 25 234 6.4 8.0 0.00 0.00 0.00 55 1020.0
20260831142246 25 319 4.8 6.4 0.00 0.00 0.00 55 1019.9
20260831141746 25 249 3.2 8.0 0.00 0.00 0.00 56 1019.9
20260831141245 25 197 3.2 4.8 0.00 0.00 0.00 55 1019.7
20260831140740 25 240 1.6 4.8 0.00 0.00 0.00 56 1019.7
20260831140234 24 339 4.8 6.4 0.00 0.00 0.00 57 1019.7
20260831135732 24 323 4.8 9.7 0.00 0.00 0.00 58 1019.6
20260831135228 23 291 4.8 6.4 0.00 0.00 0.00 56 1019.6
20260831134724 23 236 3.2 9.7 0.00 0.00 0.00 58 1019.4
20260831134220 23 216 8.0 14.5 0.00 0.00 0.00 57 1019.2
20260831133719 23 207 9.7 11.3 0.00 0.00 0.00 58 1018.9
20260831133213 23 203 11.3 11.3 0.00 0.00 0.00 58 1019.0
20260831132709 22 170 6.4 8.0 0.00 0.00 0.00 59 1019.2
20260831132208 22 196 6.4 8.0 0.00 0.00 0.00 62 1019.1
20260831131702 22 172 4.8 6.4 0.00 0.00 0.00 63 1018.9
20260831131159 21 157 0.0 3.2 0.00 0.00 0.00 63 1019.0
20260831130654 21 50 0.0 3.2 0.00 0.00 0.00 65 1018.8
20260831130150 21 12 1.6 3.2 0.00 0.00 0.00 65 1019.0
20260831125648 20 30 0.0 1.6 0.00 0.00 0.00 66 1018.7
20260831125144 20 208 1.6 3.2 0.00 0.00 0.00 68 1018.5
20260831124640 20 205 3.2 4.8 0.00 0.00 0.00 69 1018.1
20260831124136 20 187 4.8 8.0 0.00 0.00 0.00 67 1018.1
20260831123635 20 218 6.4 8.0 0.00 0.00 0.00 68 1018.1
20260831123134 18 204 6.4 6.4 0.00 0.00 0.00 70 1018.0
20260831122634 18 183 6.4 6.4 0.00 0.00 0.00 71 1017.9
20260831122130 18 197 4.8 8.0 0.00 0.00 0.00 70 1017.7
20260831121629 18 154 4.8 8.0 0.00 0.00 0.00 71 1017.6
20260831121126 19 185 3.2 4.8 0.00 0.00 0.00 69 1017.7
20260831120621 20 184 3.2 9.7 0.00 0.00 0.00 67 1017.5
20260831120116 20 215 9.7 9.7 0.00 0.00 0.00 67 1017.3
20260831115612 19 203 6.4 9.7 0.00 0.00 0.00 69 1017.3
20260831115107 18 175 4.8 8.0 0.00 0.00 0.00 70 1017.2
20260831114605 18 181 4.8 8.0 0.00 0.00 0.00 70 1017.2
20260831114101 19 162 8.0 9.7 0.00 0.00 0.00 69 1017.2
20260831113600 20 161 8.0 9.7 0.00 0.00 0.00 68 1017.3
20260831113056 20 220 4.8 8.0 0.00 0.00 0.00 65 1017.0
20260831112555 21 226 6.4 9.7 0.00 0.00 0.00 63 1017.1
20260831112050 21 214 9.7 12.9 0.00 0.00 0.00 62 1017.2
20260831111546 20 207 6.4 9.7 0.00 0.00 0.00 65 1017.0
20260831111042 20 184 8.0 9.7 0.00 0.00 0.00 65 1016.9
20260831110537 20 176 9.7 9.7 0.00 0.00 0.00 65 1016.8